Time,TemperatureF,DewpointF,PressureIn,WindDirection,WindDirectionDegrees,WindSpeedMPH,WindSpeedGustMPH,Humidity,HourlyPrecipIn,Conditions,Clouds,dailyrainin,SolarRadiationWatts/m^2,SoftwareType,DateUTC
2013-01-09 00:02:00,26.0,13.0,-100.00,SE,134,3.0,8.0,57,0.00,,,0.00,0.000000,,2013-01-09 07:02:00,
2013-01-09 00:12:00,26.0,13.0,-100.00,SE,134,3.0,8.0,57,0.00,,,0.00,0.000000,,2013-01-09 07:12:00,
2013-01-09 00:22:00,26.0,13.0,-100.00,SE,134,3.0,8.0,57,0.00,,,0.00,0.000000,,2013-01-09 07:22:00,
2013-01-09 00:32:00,26.0,13.0,-100.00,SE,134,3.0,8.0,57,0.00,,,0.00,0.000000,,2013-01-09 07:32:00,
2013-01-09 01:02:00,28.0,13.0,-100.00,SSE,147,4.0,7.0,53,-99.99,,,0.00,0.000000,,2013-01-09 08:02:00,
2013-01-09 01:12:00,28.0,13.0,-100.00,SSE,147,4.0,7.0,53,-99.99,,,0.00,0.000000,,2013-01-09 08:12:00,
2013-01-09 01:22:00,28.0,13.0,-100.00,SSE,147,4.0,7.0,53,-99.99,,,0.00,0.000000,,2013-01-09 08:22:00,
2013-01-09 01:32:00,28.0,13.0,-100.00,SSE,147,4.0,7.0,53,-99.99,,,0.00,0.000000,,2013-01-09 08:32:00,
2013-01-09 01:40:00,26.0,9.0,-100.00,North,352,3.0,7.0,49,-99.99,,,0.00,0.000000,,2013-01-09 08:40:00,
2013-01-09 02:02:00,26.0,9.0,-100.00,North,352,3.0,7.0,49,-99.99,,,0.00,0.000000,,2013-01-09 09:02:00,
2013-01-09 02:12:00,26.0,9.0,-100.00,North,352,3.0,7.0,49,-99.99,,,0.00,0.000000,,2013-01-09 09:12:00,
2013-01-09 02:22:00,26.0,9.0,-100.00,North,352,3.0,7.0,49,-99.99,,,0.00,0.000000,,2013-01-09 09:22:00,
2013-01-09 02:32:00,26.0,9.0,-100.00,North,352,3.0,7.0,49,-99.99,,,0.00,0.000000,,2013-01-09 09:32:00,
2013-01-09 02:40:00,24.0,10.0,-100.00,NNW,336,5.0,7.0,54,0.00,,,0.00,0.000000,,2013-01-09 09:40:00,
2013-01-09 03:02:00,24.0,10.0,-100.00,NNW,336,5.0,7.0,54,0.00,,,0.00,0.000000,,2013-01-09 10:02:00,
2013-01-09 03:11:00,24.0,10.0,-100.00,NNW,336,5.0,7.0,54,0.00,,,0.00,0.000000,,2013-01-09 10:11:00,
2013-01-09 03:22:00,24.0,10.0,-100.00,NNW,336,5.0,7.0,54,0.00,,,0.00,0.000000,,2013-01-09 10:22:00,
2013-01-09 03:32:00,24.0,10.0,-100.00,NNW,336,5.0,7.0,54,0.00,,,0.00,0.000000,,2013-01-09 10:32:00,
2013-01-09 04:02:00,29.0,11.0,-100.00,NNW,346,5.0,6.0,47,0.00,,,0.00,0.000000,,2013-01-09 11:02:00,
2013-01-09 04:32:00,29.0,11.0,-100.00,NNW,346,5.0,6.0,47,0.00,,,0.00,0.000000,,2013-01-09 11:32:00,
2013-01-09 04:40:00,26.0,11.0,-100.00,West,270,1.0,5.0,53,-99.99,,,0.00,0.000000,,2013-01-09 11:40:00,
2013-01-09 05:03:00,26.0,11.0,-100.00,West,270,1.0,5.0,53,-99.99,,,0.00,0.000000,,2013-01-09 12:03:00,
2013-01-09 05:12:00,26.0,11.0,-100.00,West,270,1.0,5.0,53,-99.99,,,0.00,0.000000,,2013-01-09 12:12:00,
2013-01-09 05:22:00,26.0,11.0,-100.00,West,270,1.0,5.0,53,-99.99,,,0.00,0.000000,,2013-01-09 12:22:00,
2013-01-09 05:32:00,26.0,11.0,-100.00,West,270,1.0,5.0,53,-99.99,,,0.00,0.000000,,2013-01-09 12:32:00,
2013-01-09 05:40:00,24.0,11.0,-100.00,SE,144,3.0,5.0,56,0.00,,,0.00,0.000000,,2013-01-09 12:40:00,
2013-01-09 06:02:00,24.0,11.0,-100.00,SE,144,3.0,5.0,56,0.00,,,0.00,0.000000,,2013-01-09 13:02:00,
2013-01-09 06:12:00,24.0,11.0,-100.00,SE,144,3.0,5.0,56,0.00,,,0.00,0.000000,,2013-01-09 13:12:00,
2013-01-09 06:22:00,24.0,11.0,-100.00,SE,144,3.0,5.0,56,0.00,,,0.00,0.000000,,2013-01-09 13:22:00,
2013-01-09 06:32:00,24.0,11.0,-100.00,SE,144,3.0,5.0,56,0.00,,,0.00,0.000000,,2013-01-09 13:32:00,
2013-01-09 06:40:00,26.0,8.0,-100.00,SSE,149,4.0,5.0,46,0.00,,,0.00,0.000000,,2013-01-09 13:40:00,
2013-01-09 07:02:00,26.0,8.0,-100.00,SSE,149,4.0,5.0,46,0.00,,,0.00,0.000000,,2013-01-09 14:02:00,
2013-01-09 07:12:00,26.0,8.0,-100.00,SSE,149,4.0,5.0,46,0.00,,,0.00,0.000000,,2013-01-09 14:12:00,
2013-01-09 07:22:00,26.0,8.0,-100.00,SSE,149,4.0,5.0,46,0.00,,,0.00,0.000000,,2013-01-09 14:22:00,
2013-01-09 07:32:00,26.0,8.0,-100.00,SSE,149,4.0,5.0,46,0.00,,,0.00,0.000000,,2013-01-09 14:32:00,
2013-01-09 07:40:00,25.0,8.0,-100.00,SE,125,4.0,6.0,48,0.00,,,0.00,2.000000,,2013-01-09 14:40:00,
2013-01-09 08:03:00,25.0,8.0,-100.00,SE,125,4.0,6.0,48,0.00,,,0.00,2.000000,,2013-01-09 15:03:00,
2013-01-09 08:12:00,25.0,8.0,-100.00,SE,125,4.0,6.0,48,0.00,,,0.00,2.000000,,2013-01-09 15:12:00,
2013-01-09 08:22:00,25.0,8.0,-100.00,SE,125,4.0,6.0,48,0.00,,,0.00,2.000000,,2013-01-09 15:22:00,
2013-01-09 08:33:00,25.0,8.0,-100.00,SE,125,4.0,6.0,48,0.00,,,0.00,2.000000,,2013-01-09 15:33:00,
2013-01-09 08:40:00,26.0,11.0,-100.00,SSE,164,6.0,10.0,53,0.00,,,0.00,36.000000,,2013-01-09 15:40:00,
2013-01-09 09:03:00,26.0,11.0,-100.00,SSE,164,6.0,10.0,53,0.00,,,0.00,36.000000,,2013-01-09 16:03:00,
2013-01-09 09:12:00,26.0,11.0,-100.00,SSE,164,6.0,10.0,53,0.00,,,0.00,36.000000,,2013-01-09 16:12:00,
2013-01-09 09:22:00,26.0,11.0,-100.00,SSE,164,6.0,10.0,53,0.00,,,0.00,36.000000,,2013-01-09 16:22:00,
2013-01-09 09:33:00,26.0,11.0,-100.00,SSE,164,6.0,10.0,53,0.00,,,0.00,36.000000,,2013-01-09 16:33:00,
2013-01-09 09:40:00,31.0,13.0,-100.00,SE,126,5.0,12.0,47,0.00,,,0.00,278.000000,,2013-01-09 16:40:00,
2013-01-09 10:02:00,31.0,13.0,-100.00,SE,126,5.0,12.0,47,0.00,,,0.00,278.000000,,2013-01-09 17:02:00,
2013-01-09 10:12:00,31.0,13.0,-100.00,SE,126,5.0,12.0,47,0.00,,,0.00,278.000000,,2013-01-09 17:12:00,
2013-01-09 10:22:00,31.0,13.0,-100.00,SE,126,5.0,12.0,47,0.00,,,0.00,278.000000,,2013-01-09 17:22:00,
2013-01-09 10:32:00,31.0,13.0,-100.00,SE,126,5.0,12.0,47,0.00,,,0.00,278.000000,,2013-01-09 17:32:00,
2013-01-09 10:40:00,38.0,9.0,-100.00,SE,128,13.0,24.0,29,0.00,,,0.00,464.000000,,2013-01-09 17:40:00,
2013-01-09 11:03:00,38.0,9.0,-100.00,SE,128,13.0,24.0,29,0.00,,,0.00,464.000000,,2013-01-09 18:03:00,
2013-01-09 11:12:00,38.0,9.0,-100.00,SE,128,13.0,24.0,29,0.00,,,0.00,464.000000,,2013-01-09 18:12:00,
2013-01-09 11:23:00,38.0,9.0,-100.00,SE,128,13.0,24.0,29,0.00,,,0.00,464.000000,,2013-01-09 18:23:00,
2013-01-09 11:32:00,38.0,9.0,-100.00,SE,128,13.0,24.0,29,0.00,,,0.00,464.000000,,2013-01-09 18:32:00,
2013-01-09 11:40:00,40.0,10.0,-100.00,SSE,159,13.0,25.0,29,0.00,,,0.00,602.000000,,2013-01-09 18:40:00,
2013-01-09 12:02:00,40.0,10.0,-100.00,SSE,159,13.0,25.0,29,0.00,,,0.00,602.000000,,2013-01-09 19:02:00,
2013-01-09 12:12:00,40.0,10.0,-100.00,SSE,159,13.0,25.0,29,0.00,,,0.00,602.000000,,2013-01-09 19:12:00,
2013-01-09 12:22:00,40.0,10.0,-100.00,SSE,159,13.0,25.0,29,0.00,,,0.00,602.000000,,2013-01-09 19:22:00,
2013-01-09 12:33:00,40.0,10.0,-100.00,SSE,159,13.0,25.0,29,0.00,,,0.00,602.000000,,2013-01-09 19:33:00,
2013-01-09 12:40:00,41.0,12.0,-100.00,South,169,11.0,19.0,30,0.00,,,0.00,676.000000,,2013-01-09 19:40:00,
2013-01-09 13:02:00,41.0,12.0,-100.00,South,169,11.0,19.0,30,0.00,,,0.00,676.000000,,2013-01-09 20:02:00,
2013-01-09 13:12:00,41.0,12.0,-100.00,South,169,11.0,19.0,30,0.00,,,0.00,676.000000,,2013-01-09 20:12:00,
2013-01-09 13:22:00,41.0,12.0,-100.00,South,169,11.0,19.0,30,0.00,,,0.00,676.000000,,2013-01-09 20:22:00,
2013-01-09 13:32:00,41.0,12.0,-100.00,South,169,11.0,19.0,30,0.00,,,0.00,676.000000,,2013-01-09 20:32:00,
2013-01-09 13:40:00,42.0,13.0,-100.00,South,172,9.0,13.0,30,0.00,,,0.00,675.000000,,2013-01-09 20:40:00,
2013-01-09 14:03:00,42.0,13.0,-100.00,South,172,9.0,13.0,30,0.00,,,0.00,675.000000,,2013-01-09 21:03:00,
2013-01-09 14:12:00,42.0,13.0,-100.00,South,172,9.0,13.0,30,0.00,,,0.00,675.000000,,2013-01-09 21:12:00,
2013-01-09 14:22:00,42.0,13.0,-100.00,South,172,9.0,13.0,30,0.00,,,0.00,675.000000,,2013-01-09 21:22:00,
2013-01-09 14:32:00,42.0,13.0,-100.00,South,172,9.0,13.0,30,0.00,,,0.00,675.000000,,2013-01-09 21:32:00,
2013-01-09 14:40:00,41.0,13.0,-100.00,South,183,8.0,14.0,32,0.00,,,0.00,604.000000,,2013-01-09 21:40:00,
2013-01-09 15:12:00,41.0,13.0,-100.00,South,183,8.0,14.0,32,0.00,,,0.00,604.000000,,2013-01-09 22:12:00,
2013-01-09 15:22:00,41.0,13.0,-100.00,South,183,8.0,14.0,32,0.00,,,0.00,604.000000,,2013-01-09 22:22:00,
2013-01-09 15:33:00,41.0,13.0,-100.00,South,183,8.0,14.0,32,0.00,,,0.00,604.000000,,2013-01-09 22:33:00,
2013-01-09 15:40:00,40.0,13.0,-100.00,South,182,8.0,11.0,33,0.00,,,0.00,466.000000,,2013-01-09 22:40:00,
2013-01-09 16:02:00,40.0,13.0,-100.00,South,182,8.0,11.0,33,0.00,,,0.00,466.000000,,2013-01-09 23:02:00,
2013-01-09 16:12:00,40.0,13.0,-100.00,South,182,8.0,11.0,33,0.00,,,0.00,466.000000,,2013-01-09 23:12:00,
2013-01-09 16:22:00,40.0,13.0,-100.00,South,182,8.0,11.0,33,0.00,,,0.00,466.000000,,2013-01-09 23:22:00,
2013-01-09 16:32:00,40.0,13.0,-100.00,South,182,8.0,11.0,33,0.00,,,0.00,466.000000,,2013-01-09 23:32:00,
2013-01-09 16:40:00,35.0,11.0,-100.00,SSE,161,3.0,10.0,37,0.00,,,0.00,218.000000,,2013-01-09 23:40:00,
2013-01-09 17:03:00,35.0,11.0,-100.00,SSE,161,3.0,10.0,37,0.00,,,0.00,218.000000,,2013-01-10 00:03:00,
2013-01-09 17:12:00,35.0,11.0,-100.00,SSE,161,3.0,10.0,37,0.00,,,0.00,218.000000,,2013-01-10 00:12:00,
2013-01-09 17:22:00,35.0,11.0,-100.00,SSE,161,3.0,10.0,37,0.00,,,0.00,218.000000,,2013-01-10 00:22:00,
2013-01-09 17:32:00,35.0,11.0,-100.00,SSE,161,3.0,10.0,37,0.00,,,0.00,218.000000,,2013-01-10 00:32:00,
2013-01-09 17:40:00,31.0,12.0,-100.00,SE,142,4.0,8.0,44,0.00,,,0.00,8.000000,,2013-01-10 00:40:00,
2013-01-09 18:02:00,31.0,12.0,-100.00,SE,142,4.0,8.0,44,0.00,,,0.00,8.000000,,2013-01-10 01:02:00,
2013-01-09 18:12:00,31.0,12.0,-100.00,SE,142,4.0,8.0,44,0.00,,,0.00,8.000000,,2013-01-10 01:12:00,
2013-01-09 18:22:00,31.0,12.0,-100.00,SE,142,4.0,8.0,44,0.00,,,0.00,8.000000,,2013-01-10 01:22:00,
2013-01-09 18:32:00,31.0,12.0,-100.00,SE,142,4.0,8.0,44,0.00,,,0.00,8.000000,,2013-01-10 01:32:00,
2013-01-09 18:40:00,32.0,8.0,-100.00,South,170,3.0,9.0,36,0.00,,,0.00,0.000000,,2013-01-10 01:40:00,
2013-01-09 19:02:00,32.0,8.0,-100.00,South,170,3.0,9.0,36,0.00,,,0.00,0.000000,,2013-01-10 02:02:00,
2013-01-09 19:12:00,32.0,8.0,-100.00,South,170,3.0,9.0,36,0.00,,,0.00,0.000000,,2013-01-10 02:12:00,
2013-01-09 19:22:00,32.0,8.0,-100.00,South,170,3.0,9.0,36,0.00,,,0.00,0.000000,,2013-01-10 02:22:00,
2013-01-09 19:32:00,32.0,8.0,-100.00,South,170,3.0,9.0,36,0.00,,,0.00,0.000000,,2013-01-10 02:32:00,
2013-01-09 19:40:00,30.0,9.0,-100.00,SSE,161,4.0,7.0,41,0.00,,,0.00,0.000000,,2013-01-10 02:40:00,
2013-01-09 20:02:00,30.0,9.0,-100.00,SSE,161,4.0,7.0,41,0.00,,,0.00,0.000000,,2013-01-10 03:02:00,
2013-01-09 20:12:00,30.0,9.0,-100.00,SSE,161,4.0,7.0,41,0.00,,,0.00,0.000000,,2013-01-10 03:12:00,
2013-01-09 20:22:00,30.0,9.0,-100.00,SSE,161,4.0,7.0,41,0.00,,,0.00,0.000000,,2013-01-10 03:22:00,
2013-01-09 20:32:00,30.0,9.0,-100.00,SSE,161,4.0,7.0,41,0.00,,,0.00,0.000000,,2013-01-10 03:32:00,
2013-01-09 20:40:00,30.0,8.0,-100.00,SSE,163,6.0,7.0,38,0.00,,,0.00,0.000000,,2013-01-10 03:40:00,
2013-01-09 21:02:00,30.0,8.0,-100.00,SSE,163,6.0,7.0,38,0.00,,,0.00,0.000000,,2013-01-10 04:02:00,
2013-01-09 21:12:00,30.0,8.0,-100.00,SSE,163,6.0,7.0,38,0.00,,,0.00,0.000000,,2013-01-10 04:12:00,
2013-01-09 21:22:00,30.0,8.0,-100.00,SSE,163,6.0,7.0,38,0.00,,,0.00,0.000000,,2013-01-10 04:22:00,
2013-01-09 21:32:00,30.0,8.0,-100.00,SSE,163,6.0,7.0,38,0.00,,,0.00,0.000000,,2013-01-10 04:32:00,
2013-01-09 21:40:00,31.0,7.0,-100.00,SSE,151,5.0,7.0,35,0.00,,,0.00,0.000000,,2013-01-10 04:40:00,
2013-01-09 22:03:00,31.0,7.0,-100.00,SSE,151,5.0,7.0,35,0.00,,,0.00,0.000000,,2013-01-10 05:03:00,
2013-01-09 22:12:00,31.0,7.0,-100.00,SSE,151,5.0,7.0,35,0.00,,,0.00,0.000000,,2013-01-10 05:12:00,
2013-01-09 22:22:00,31.0,7.0,-100.00,SSE,151,5.0,7.0,35,0.00,,,0.00,0.000000,,2013-01-10 05:22:00,
2013-01-09 22:32:00,31.0,7.0,-100.00,SSE,151,5.0,7.0,35,0.00,,,0.00,0.000000,,2013-01-10 05:32:00,
2013-01-09 22:40:00,29.0,7.0,-100.00,SSE,149,3.0,5.0,38,0.00,,,0.00,0.000000,,2013-01-10 05:40:00,
2013-01-09 23:02:00,29.0,7.0,-100.00,SSE,149,3.0,5.0,38,0.00,,,0.00,0.000000,,2013-01-10 06:02:00,
2013-01-09 23:11:00,29.0,7.0,-100.00,SSE,149,3.0,5.0,38,0.00,,,0.00,0.000000,,2013-01-10 06:11:00,
2013-01-09 23:22:00,29.0,7.0,-100.00,SSE,149,3.0,5.0,38,0.00,,,0.00,0.000000,,2013-01-10 06:22:00,
2013-01-09 23:32:00,29.0,7.0,-100.00,SSE,149,3.0,5.0,38,0.00,,,0.00,0.000000,,2013-01-10 06:32:00,
2013-01-09 23:40:00,27.0,6.0,-100.00,SSE,148,4.0,6.0,41,0.00,,,0.00,0.000000,,2013-01-10 06:40:00,